Time,TemperatureF,DewpointF,PressureIn,WindDirection,WindDirectionDegrees,WindSpeedMPH,WindSpeedGustMPH,Humidity,HourlyPrecipIn,Conditions,Clouds,dailyrainin,SoftwareType,DateUTC
2013-01-22 00:04:00,5.7,-4.5,29.26,WSW,244,0.0,0.0,62,0.00,,FEW250,0.00,VWS V14.01,2013-01-22 06:04:00,
2013-01-22 00:09:00,5.5,-4.6,29.26,WSW,245,0.0,0.0,62,0.00,,FEW250,0.00,VWS V14.01,2013-01-22 06:09:00,
2013-01-22 00:14:00,5.5,-4.6,29.26,WSW,244,0.0,0.0,62,0.00,,FEW250,0.00,VWS V14.01,2013-01-22 06:14:00,
2013-01-22 00:19:00,5.7,-4.5,29.26,WSW,244,0.0,0.0,62,0.00,,FEW250,0.00,VWS V14.01,2013-01-22 06:19:00,
2013-01-22 00:24:00,5.9,-4.3,29.26,WSW,245,0.0,0.0,62,0.00,,FEW250,0.00,VWS V14.01,2013-01-22 06:24:00,
2013-01-22 00:29:00,5.9,-4.3,29.26,WSW,245,0.0,0.0,62,0.00,,FEW250,0.00,VWS V14.01,2013-01-22 06:29:00,
2013-01-22 00:34:00,5.9,-4.3,29.26,WSW,245,0.0,0.0,62,0.00,,FEW250,0.00,VWS V14.01,2013-01-22 06:34:00,
2013-01-22 00:39:00,5.9,-4.3,29.26,WSW,245,0.0,0.0,62,0.00,,FEW250,0.00,VWS V14.01,2013-01-22 06:39:00,
2013-01-22 00:44:00,5.9,-4.3,29.26,WSW,245,0.0,0.0,62,0.00,,FEW250,0.00,VWS V14.01,2013-01-22 06:44:00,
2013-01-22 00:49:00,5.9,-4.3,29.26,WSW,244,0.0,0.0,62,0.00,,FEW250,0.00,VWS V14.01,2013-01-22 06:49:00,
2013-01-22 00:54:00,5.9,-4.3,29.26,WSW,245,0.0,0.0,62,0.00,,FEW250,0.00,VWS V14.01,2013-01-22 06:54:00,
2013-01-22 00:59:00,5.9,-4.3,29.26,WSW,245,0.0,0.0,62,0.00,,FEW250,0.00,VWS V14.01,2013-01-22 06:59:00,
2013-01-22 01:04:00,6.1,-4.1,29.26,WSW,244,0.0,0.0,62,0.00,,FEW250,0.00,VWS V14.01,2013-01-22 07:04:00,
2013-01-22 01:09:00,6.1,-4.1,29.26,WSW,245,0.0,0.0,62,0.00,,FEW250,0.00,VWS V14.01,2013-01-22 07:09:00,
2013-01-22 01:14:00,6.1,-4.1,29.26,WSW,245,0.0,0.0,62,0.00,,FEW250,0.00,VWS V14.01,2013-01-22 07:14:00,
2013-01-22 01:19:00,6.1,-4.1,29.26,WSW,245,0.0,0.0,62,0.00,,FEW250,0.00,VWS V14.01,2013-01-22 07:19:00,
2013-01-22 01:24:00,6.1,-4.1,29.26,WSW,244,0.0,0.0,62,0.00,,FEW250,0.00,VWS V14.01,2013-01-22 07:24:00,
2013-01-22 01:29:00,6.1,-4.1,29.26,WSW,244,0.0,0.0,62,0.00,,FEW250,0.00,VWS V14.01,2013-01-22 07:29:00,
2013-01-22 01:34:00,6.3,-4.0,29.26,WSW,245,0.0,0.0,62,0.00,,FEW250,0.00,VWS V14.01,2013-01-22 07:34:00,
2013-01-22 01:39:00,6.3,-4.0,29.26,WSW,245,0.0,0.0,62,0.00,,FEW250,0.00,VWS V14.01,2013-01-22 07:39:00,
2013-01-22 01:44:00,6.3,-4.0,29.26,WSW,245,0.0,0.0,62,0.00,,FEW250,0.00,VWS V14.01,2013-01-22 07:44:00,
2013-01-22 01:49:00,6.3,-4.0,29.26,West,268,0.0,0.0,62,0.00,,FEW250,0.00,VWS V14.01,2013-01-22 07:49:00,
2013-01-22 01:54:00,6.4,-3.8,29.26,West,269,0.0,0.0,62,0.00,,FEW250,0.00,VWS V14.01,2013-01-22 07:54:00,
2013-01-22 01:59:00,6.3,-4.0,29.26,West,279,0.0,0.0,62,0.00,,FEW250,0.00,VWS V14.01,2013-01-22 07:59:00,
2013-01-22 02:04:00,6.4,-3.8,29.26,WNW,298,0.0,0.0,62,0.00,,BKN250,0.00,VWS V14.01,2013-01-22 08:04:00,
2013-01-22 02:09:00,6.3,-4.0,29.26,NW,316,5.4,5.4,62,0.00,,BKN250,0.00,VWS V14.01,2013-01-22 08:09:00,
2013-01-22 02:14:00,6.3,-4.0,29.26,NNW,337,0.0,0.0,62,0.00,,BKN250,0.00,VWS V14.01,2013-01-22 08:14:00,
2013-01-22 02:19:00,6.1,-4.1,29.26,West,276,3.1,4.0,62,0.00,,BKN250,0.00,VWS V14.01,2013-01-22 08:19:00,
2013-01-22 02:24:00,6.1,-4.1,29.26,West,278,0.0,0.0,62,0.00,,BKN250,0.00,VWS V14.01,2013-01-22 08:24:00,
2013-01-22 02:29:00,6.1,-4.1,29.26,West,278,0.0,0.0,62,0.00,,BKN250,0.00,VWS V14.01,2013-01-22 08:29:00,
2013-01-22 02:34:00,6.1,-4.1,29.26,West,276,0.0,0.0,62,0.00,,BKN250,0.00,VWS V14.01,2013-01-22 08:34:00,
2013-01-22 02:39:00,6.1,-4.1,29.26,West,280,0.0,0.0,62,0.00,,BKN250,0.00,VWS V14.01,2013-01-22 08:39:00,
2013-01-22 02:44:00,6.1,-4.1,29.26,WNW,290,0.0,0.0,62,0.00,,BKN250,0.00,VWS V14.01,2013-01-22 08:44:00,
2013-01-22 02:49:00,6.1,-4.1,29.26,NW,304,0.0,0.0,62,0.00,,BKN250,0.00,VWS V14.01,2013-01-22 08:49:00,
2013-01-22 02:55:00,6.1,-4.1,29.26,WNW,294,0.0,0.0,62,0.00,,BKN250,0.00,VWS V14.01,2013-01-22 08:55:00,
2013-01-22 03:00:00,6.1,-4.1,29.26,NW,304,0.0,0.0,62,0.00,,BKN250,0.00,VWS V14.01,2013-01-22 09:00:00,
2013-01-22 03:05:00,6.1,-4.1,29.26,West,268,0.0,0.0,62,0.00,,BKN250,0.00,VWS V14.01,2013-01-22 09:05:00,
2013-01-22 03:10:00,5.9,-4.3,29.26,West,279,0.0,0.0,62,0.00,,BKN250,0.00,VWS V14.01,2013-01-22 09:10:00,
2013-01-22 03:15:00,5.9,-4.3,29.26,WNW,293,0.0,0.0,62,0.00,,BKN250,0.00,VWS V14.01,2013-01-22 09:15:00,
2013-01-22 03:20:00,5.9,-4.3,29.26,WNW,295,0.0,0.0,62,0.00,,BKN250,0.00,VWS V14.01,2013-01-22 09:20:00,
2013-01-22 03:25:00,5.9,-4.3,29.26,WNW,288,0.0,0.0,62,0.00,,BKN250,0.00,VWS V14.01,2013-01-22 09:25:00,
2013-01-22 03:30:00,5.9,-4.3,29.26,West,280,0.0,0.0,62,0.00,,BKN250,0.00,VWS V14.01,2013-01-22 09:30:00,
2013-01-22 03:35:00,5.9,-4.3,29.26,West,280,0.0,0.0,62,0.00,,BKN250,0.00,VWS V14.01,2013-01-22 09:35:00,
2013-01-22 03:40:00,5.7,-4.5,29.26,NW,319,0.0,0.0,62,0.00,,BKN250,0.00,VWS V14.01,2013-01-22 09:40:00,
2013-01-22 03:45:00,5.7,-4.5,29.26,WNW,303,0.0,0.0,62,0.00,,BKN250,0.00,VWS V14.01,2013-01-22 09:45:00,
2013-01-22 03:50:00,5.5,-4.6,29.26,NW,309,0.0,0.0,62,0.00,,BKN250,0.00,VWS V14.01,2013-01-22 09:50:00,
2013-01-22 03:55:00,5.5,-4.6,29.26,NW,308,0.0,0.0,62,0.00,,BKN250,0.00,VWS V14.01,2013-01-22 09:55:00,
2013-01-22 04:01:00,5.7,-4.5,29.26,WNW,297,0.0,0.0,62,0.00,,SCT150,0.00,VWS V14.01,2013-01-22 10:01:00,
2013-01-22 04:06:00,5.7,-4.5,29.26,WNW,300,0.0,0.0,62,0.00,,SCT150,0.00,VWS V14.01,2013-01-22 10:06:00,
2013-01-22 04:11:00,5.5,-4.6,29.26,NW,311,0.0,0.0,62,0.00,,SCT150,0.00,VWS V14.01,2013-01-22 10:11:00,
2013-01-22 04:16:00,5.5,-4.6,29.26,NW,311,0.0,0.0,62,0.00,,SCT150,0.00,VWS V14.01,2013-01-22 10:16:00,
2013-01-22 04:21:00,5.5,-4.6,29.26,NW,305,0.0,0.0,62,0.00,,SCT150,0.00,VWS V14.01,2013-01-22 10:21:00,
2013-01-22 04:26:00,5.5,-4.6,29.26,NW,304,0.0,0.0,62,0.00,,SCT150,0.00,VWS V14.01,2013-01-22 10:26:00,
2013-01-22 04:31:00,5.5,-4.6,29.26,NW,304,0.0,0.0,62,0.00,,SCT150,0.00,VWS V14.01,2013-01-22 10:31:00,
2013-01-22 04:36:00,5.5,-4.6,29.26,NW,305,0.0,0.0,62,0.00,,SCT150,0.00,VWS V14.01,2013-01-22 10:36:00,
2013-01-22 04:41:00,5.7,-4.5,29.26,NW,304,0.0,0.0,62,0.00,,SCT150,0.00,VWS V14.01,2013-01-22 10:41:00,
2013-01-22 04:46:00,5.9,-4.3,29.26,NW,304,0.0,0.0,62,0.00,,SCT150,0.00,VWS V14.01,2013-01-22 10:46:00,
2013-01-22 04:51:00,5.9,-4.3,29.26,NW,304,0.0,0.0,62,0.00,,SCT150,0.00,VWS V14.01,2013-01-22 10:51:00,
2013-01-22 04:56:00,6.1,-4.1,29.26,NW,304,0.0,0.0,62,0.00,,SCT150,0.00,VWS V14.01,2013-01-22 10:56:00,
2013-01-22 05:01:00,6.1,-4.1,29.26,West,278,0.0,0.0,62,0.00,,SCT150,0.00,VWS V14.01,2013-01-22 11:01:00,
2013-01-22 05:06:00,6.1,-4.1,29.26,West,278,0.0,0.0,62,0.00,,SCT150,0.00,VWS V14.01,2013-01-22 11:06:00,
2013-01-22 05:11:00,6.1,-4.1,29.26,WSW,258,0.0,0.0,62,0.00,,SCT150,0.00,VWS V14.01,2013-01-22 11:11:00,
2013-01-22 05:17:00,6.3,-4.0,29.26,West,272,0.0,0.0,62,0.00,,SCT150,0.00,VWS V14.01,2013-01-22 11:17:00,
2013-01-22 05:22:00,6.3,-4.0,29.26,West,276,0.0,0.0,62,0.00,,SCT150,0.00,VWS V14.01,2013-01-22 11:22:00,
2013-01-22 05:27:00,6.3,-4.0,29.26,West,275,0.0,0.0,62,0.00,,SCT150,0.00,VWS V14.01,2013-01-22 11:27:00,
2013-01-22 05:32:00,6.3,-4.0,29.26,West,274,0.0,0.0,62,0.00,,SCT150,0.00,VWS V14.01,2013-01-22 11:32:00,
2013-01-22 05:37:00,6.3,-4.0,29.26,WNW,284,0.0,0.0,62,0.00,,SCT150,0.00,VWS V14.01,2013-01-22 11:37:00,
2013-01-22 05:42:00,6.3,-4.0,29.26,NW,304,0.0,0.0,62,0.00,,SCT150,0.00,VWS V14.01,2013-01-22 11:42:00,
2013-01-22 05:47:00,6.3,-4.0,29.26,NW,305,0.0,0.0,62,0.00,,SCT150,0.00,VWS V14.01,2013-01-22 11:47:00,
2013-01-22 05:52:00,6.3,-4.0,29.26,NW,305,0.0,0.0,62,0.00,,SCT150,0.00,VWS V14.01,2013-01-22 11:52:00,
2013-01-22 05:57:00,6.3,-4.0,29.26,NW,304,0.0,0.0,62,0.00,,SCT150,0.00,VWS V14.01,2013-01-22 11:57:00,
2013-01-22 06:02:00,6.1,-4.1,29.26,NW,304,0.0,0.0,62,0.00,,SCT090,0.00,VWS V14.01,2013-01-22 12:02:00,
2013-01-22 06:07:00,6.1,-4.1,29.26,NW,304,0.0,0.0,62,0.00,,SCT090,0.00,VWS V14.01,2013-01-22 12:07:00,
2013-01-22 06:12:00,5.9,-4.3,29.26,NW,304,0.0,0.0,62,0.00,,SCT090,0.00,VWS V14.01,2013-01-22 12:12:00,
2013-01-22 06:17:00,5.9,-4.3,29.26,NW,304,0.0,0.0,62,0.00,,SCT090,0.00,VWS V14.01,2013-01-22 12:17:00,
2013-01-22 06:23:00,5.9,-4.3,29.26,NW,304,0.0,0.0,62,0.00,,SCT090,0.00,VWS V14.01,2013-01-22 12:23:00,
2013-01-22 06:28:00,5.9,-4.3,29.26,NW,304,0.0,0.0,62,0.00,,SCT090,0.00,VWS V14.01,2013-01-22 12:28:00,
2013-01-22 06:33:00,6.1,-4.1,29.26,NW,304,0.0,0.0,62,0.00,,SCT090,0.00,VWS V14.01,2013-01-22 12:33:00,
2013-01-22 06:38:00,6.3,-4.0,29.26,NW,304,0.0,0.0,62,0.00,,SCT090,0.00,VWS V14.01,2013-01-22 12:38:00,
2013-01-22 06:43:00,6.3,-4.0,29.26,NW,304,0.0,0.0,62,0.00,,SCT090,0.00,VWS V14.01,2013-01-22 12:43:00,
2013-01-22 06:48:00,6.4,-3.8,29.26,NW,304,0.0,0.0,62,0.00,,SCT090,0.00,VWS V14.01,2013-01-22 12:48:00,
2013-01-22 06:53:00,6.4,-3.8,29.26,NW,304,0.0,0.0,62,0.00,,SCT090,0.00,VWS V14.01,2013-01-22 12:53:00,
2013-01-22 06:58:00,6.4,-3.8,29.26,NW,304,0.0,0.0,62,0.00,,SCT090,0.00,VWS V14.01,2013-01-22 12:58:00,
2013-01-22 07:03:00,6.4,-3.8,29.26,NW,304,0.0,0.0,62,0.00,,SCT090,0.00,VWS V14.01,2013-01-22 13:03:00,
2013-01-22 07:08:00,6.6,-3.6,29.26,NW,305,0.0,0.0,62,0.00,,SCT090,0.00,VWS V14.01,2013-01-22 13:08:00,
2013-01-22 07:13:00,6.6,-3.6,29.29,NW,305,0.0,0.0,62,0.00,,SCT090,0.00,VWS V14.01,2013-01-22 13:13:00,
2013-01-22 07:18:00,6.8,-3.5,29.29,NW,304,0.0,0.0,62,0.00,,SCT090,0.00,VWS V14.01,2013-01-22 13:18:00,
2013-01-22 07:23:00,6.8,-3.5,29.29,NW,304,0.0,0.0,62,0.00,,SCT090,0.00,VWS V14.01,2013-01-22 13:23:00,
2013-01-22 07:28:00,6.8,-3.5,29.29,NW,304,0.0,0.0,62,0.00,,SCT090,0.00,VWS V14.01,2013-01-22 13:28:00,
2013-01-22 07:33:00,6.8,-3.5,29.29,WSW,253,0.0,0.0,62,0.00,,SCT090,0.00,VWS V14.01,2013-01-22 13:33:00,
2013-01-22 07:38:00,7.0,-3.3,29.29,WSW,254,0.0,0.0,62,0.00,,SCT090,0.00,VWS V14.01,2013-01-22 13:38:00,
2013-01-22 07:43:00,7.0,-3.3,29.29,WSW,255,0.0,0.0,62,0.00,,SCT090,0.00,VWS V14.01,2013-01-22 13:43:00,
2013-01-22 07:48:00,7.0,-3.3,29.29,WSW,241,0.0,0.0,62,0.00,,SCT090,0.00,VWS V14.01,2013-01-22 13:48:00,
2013-01-22 07:53:00,7.0,-3.3,29.29,West,270,0.0,0.0,62,0.00,,SCT090,0.00,VWS V14.01,2013-01-22 13:53:00,
2013-01-22 07:58:00,7.0,-3.3,29.29,West,278,0.0,0.0,62,0.00,,SCT090,0.00,VWS V14.01,2013-01-22 13:58:00,
2013-01-22 08:03:00,7.0,-3.3,29.29,West,277,0.0,0.0,62,0.00,,SCT090,0.00,VWS V14.01,2013-01-22 14:03:00,
2013-01-22 08:09:00,7.2,-3.1,29.29,West,277,0.0,0.0,62,0.00,,SCT090,0.00,VWS V14.01,2013-01-22 14:09:00,
2013-01-22 08:14:00,7.2,-3.1,29.29,West,270,0.0,0.0,62,0.00,,SCT090,0.00,VWS V14.01,2013-01-22 14:14:00,
2013-01-22 08:19:00,7.2,-3.1,29.29,West,272,0.0,0.0,62,0.00,,SCT090,0.00,VWS V14.01,2013-01-22 14:19:00,
2013-01-22 08:24:00,7.2,-3.1,29.29,WSW,249,0.0,0.0,62,0.00,,SCT090,0.00,VWS V14.01,2013-01-22 14:24:00,
2013-01-22 08:29:00,7.3,-2.9,29.29,West,276,0.0,0.0,62,0.00,,SCT090,0.00,VWS V14.01,2013-01-22 14:29:00,
2013-01-22 08:34:00,7.3,-2.9,29.29,West,273,0.0,0.0,62,0.00,,SCT090,0.00,VWS V14.01,2013-01-22 14:34:00,
2013-01-22 08:39:00,7.3,-2.9,29.29,WSW,243,0.0,0.0,62,0.00,,SCT090,0.00,VWS V14.01,2013-01-22 14:39:00,
2013-01-22 08:44:00,7.5,-2.8,29.29,WNW,296,0.0,0.0,62,0.00,,SCT090,0.00,VWS V14.01,2013-01-22 14:44:00,
2013-01-22 08:49:00,7.5,-2.8,29.29,NW,312,0.0,0.0,62,0.00,,SCT090,0.00,VWS V14.01,2013-01-22 14:49:00,
2013-01-22 08:54:00,7.7,-2.6,29.29,West,280,0.0,0.0,62,0.00,,SCT090,0.00,VWS V14.01,2013-01-22 14:54:00,
2013-01-22 08:59:00,7.7,-2.6,29.29,West,266,0.0,0.0,62,0.00,,SCT090,0.00,VWS V14.01,2013-01-22 14:59:00,
2013-01-22 09:04:00,7.7,-2.6,29.29,West,281,0.0,0.0,62,0.00,,SCT090,0.00,VWS V14.01,2013-01-22 15:04:00,
2013-01-22 09:09:00,7.7,-2.6,29.29,West,281,0.0,0.0,62,0.00,,SCT090,0.00,VWS V14.01,2013-01-22 15:09:00,
2013-01-22 09:14:00,7.9,-2.4,29.29,West,261,0.0,0.0,62,0.00,,SCT090,0.00,VWS V14.01,2013-01-22 15:14:00,
2013-01-22 09:19:00,8.1,-2.2,29.29,WNW,285,0.0,0.0,62,0.00,,SCT090,0.00,VWS V14.01,2013-01-22 15:19:00,
2013-01-22 09:24:00,8.1,-2.2,29.29,WNW,282,0.0,0.0,62,0.00,,SCT090,0.00,VWS V14.01,2013-01-22 15:24:00,
2013-01-22 09:29:00,8.4,-1.9,29.32,SSW,206,0.0,0.0,62,0.00,,SCT090,0.00,VWS V14.01,2013-01-22 15:29:00,
2013-01-22 09:34:00,8.6,-1.7,29.32,South,187,0.0,0.0,62,0.00,,SCT090,0.00,VWS V14.01,2013-01-22 15:34:00,
2013-01-22 09:39:00,8.8,-1.6,29.32,SW,214,0.0,0.0,62,0.00,,SCT090,0.00,VWS V14.01,2013-01-22 15:39:00,
2013-01-22 09:44:00,9.1,-1.2,29.29,West,267,0.0,0.0,62,0.00,,SCT090,0.00,VWS V14.01,2013-01-22 15:44:00,
2013-01-22 09:49:00,9.0,-1.4,29.29,WSW,250,0.0,0.0,62,0.00,,SCT090,0.00,VWS V14.01,2013-01-22 15:49:00,
2013-01-22 09:54:00,9.1,-1.2,29.29,SSW,201,0.0,0.0,62,0.00,,SCT090,0.00,VWS V14.01,2013-01-22 15:54:00,
2013-01-22 10:00:00,9.3,-1.0,29.29,SW,224,0.0,0.0,62,0.00,,SCT090,0.00,VWS V14.01,2013-01-22 16:00:00,
2013-01-22 10:05:00,9.5,-0.9,29.29,SSW,207,0.0,0.0,62,0.00,,OVC130,0.00,VWS V14.01,2013-01-22 16:05:00,
2013-01-22 10:10:00,10.0,-0.4,29.29,SW,216,0.0,3.1,62,0.00,,OVC130,0.00,VWS V14.01,2013-01-22 16:10:00,
2013-01-22 10:15:00,10.0,-0.4,29.29,SSW,199,0.0,0.0,62,0.00,,OVC130,0.00,VWS V14.01,2013-01-22 16:15:00,
2013-01-22 10:20:00,10.2,-0.2,29.29,SSW,202,0.0,0.0,62,0.00,,OVC130,0.00,VWS V14.01,2013-01-22 16:20:00,
2013-01-22 10:25:00,10.8,0.3,29.29,SW,222,0.0,0.0,62,0.00,,OVC130,0.00,VWS V14.01,2013-01-22 16:25:00,
2013-01-22 10:30:00,10.8,0.3,29.32,SSW,200,0.0,0.0,62,0.00,,OVC130,0.00,VWS V14.01,2013-01-22 16:30:00,
2013-01-22 10:35:00,10.9,0.5,29.32,WSW,248,0.0,0.0,62,0.00,,OVC130,0.00,VWS V14.01,2013-01-22 16:35:00,
2013-01-22 10:40:00,10.9,0.5,29.32,SSW,198,0.0,2.7,62,0.00,,OVC130,0.00,VWS V14.01,2013-01-22 16:40:00,
2013-01-22 10:45:00,11.1,0.7,29.32,South,185,0.0,0.0,62,0.00,,OVC130,0.00,VWS V14.01,2013-01-22 16:45:00,
2013-01-22 10:50:00,11.5,1.0,29.32,SSW,206,2.7,2.7,62,0.00,,OVC130,0.00,VWS V14.01,2013-01-22 16:50:00,
2013-01-22 10:55:00,11.7,1.2,29.32,SSE,155,0.0,0.0,62,0.00,,OVC130,0.00,VWS V14.01,2013-01-22 16:55:00,
2013-01-22 11:00:00,12.0,1.5,29.32,SSW,204,0.0,0.0,62,0.00,,OVC130,0.00,VWS V14.01,2013-01-22 17:00:00,
2013-01-22 11:05:00,12.0,1.5,29.32,SW,223,5.8,5.8,62,0.00,,OVC130,0.00,VWS V14.01,2013-01-22 17:05:00,
2013-01-22 11:10:00,12.2,1.7,29.32,West,261,3.1,3.1,62,0.00,,OVC130,0.00,VWS V14.01,2013-01-22 17:10:00,
2013-01-22 11:15:00,12.2,1.7,29.32,NW,321,2.2,2.2,62,0.00,,OVC130,0.00,VWS V14.01,2013-01-22 17:15:00,
2013-01-22 11:20:00,12.2,1.7,29.32,SE,131,0.0,0.0,62,0.00,,OVC130,0.00,VWS V14.01,2013-01-22 17:20:00,
2013-01-22 11:25:00,12.2,1.7,29.32,West,268,0.0,0.0,62,0.00,,OVC130,0.00,VWS V14.01,2013-01-22 17:25:00,
2013-01-22 11:30:00,12.6,2.0,29.29,SSE,168,2.7,2.7,62,0.00,,OVC130,0.00,VWS V14.01,2013-01-22 17:30:00,
2013-01-22 11:35:00,13.1,2.5,29.29,South,177,0.0,0.0,62,0.00,,OVC130,0.00,VWS V14.01,2013-01-22 17:35:00,
2013-01-22 11:40:00,13.3,2.7,29.29,SSW,202,4.0,4.0,62,0.00,,OVC130,0.00,VWS V14.01,2013-01-22 17:40:00,
2013-01-22 11:45:00,13.6,3.0,29.29,SSW,200,0.0,0.0,62,0.00,,OVC130,0.00,VWS V14.01,2013-01-22 17:45:00,
2013-01-22 11:50:00,13.6,3.0,29.29,SSW,194,0.0,3.1,62,0.00,,OVC130,0.00,VWS V14.01,2013-01-22 17:50:00,
2013-01-22 11:55:00,13.8,3.2,29.29,SSE,165,0.0,0.0,62,0.00,,OVC130,0.00,VWS V14.01,2013-01-22 17:55:00,
2013-01-22 12:00:00,13.8,3.2,29.29,East,101,0.0,0.0,62,0.00,,OVC200,0.00,VWS V14.01,2013-01-22 18:00:00,
2013-01-22 12:05:00,13.8,3.2,29.29,SSW,213,0.0,0.0,62,0.00,,OVC200,0.00,VWS V14.01,2013-01-22 18:05:00,
2013-01-22 12:11:00,14.2,-2.8,29.29,SW,216,0.0,0.0,46,0.00,,OVC200,0.00,VWS V14.01,2013-01-22 18:11:00,
2013-01-22 12:16:00,14.4,-2.6,29.29,WNW,297,0.0,0.0,46,0.00,,OVC200,0.00,VWS V14.01,2013-01-22 18:16:00,
2013-01-22 12:21:00,14.4,-2.6,29.29,West,262,2.7,4.5,46,0.00,,OVC200,0.00,VWS V14.01,2013-01-22 18:21:00,
2013-01-22 12:26:00,14.5,-2.5,29.29,South,185,0.0,0.0,46,0.00,,OVC200,0.00,VWS V14.01,2013-01-22 18:26:00,
2013-01-22 12:31:00,14.7,-2.3,29.29,SW,233,0.0,0.0,46,0.00,,OVC200,0.00,VWS V14.01,2013-01-22 18:31:00,
2013-01-22 12:36:00,14.9,-2.1,29.29,South,191,0.0,0.0,46,0.00,,OVC200,0.00,VWS V14.01,2013-01-22 18:36:00,
2013-01-22 12:41:00,15.1,-2.0,29.29,SW,226,0.0,0.0,46,0.00,,OVC200,0.00,VWS V14.01,2013-01-22 18:41:00,
2013-01-22 12:46:00,15.1,-2.0,29.26,SSW,193,0.0,3.6,46,0.00,,OVC200,0.00,VWS V14.01,2013-01-22 18:46:00,
2013-01-22 12:52:00,15.4,-1.6,29.26,South,186,0.0,0.0,46,0.00,,OVC200,0.00,VWS V14.01,2013-01-22 18:52:00,
2013-01-22 12:57:00,15.4,-1.6,29.26,WSW,248,0.0,0.0,46,0.00,,OVC200,0.00,VWS V14.01,2013-01-22 18:57:00,
2013-01-22 13:02:00,15.8,-1.3,29.26,SSW,204,0.0,0.0,46,0.00,,OVC200,0.00,VWS V14.01,2013-01-22 19:02:00,
2013-01-22 13:07:00,15.8,-1.3,29.26,SSW,207,0.0,2.2,46,0.00,,OVC200,0.00,VWS V14.01,2013-01-22 19:07:00,
2013-01-22 13:12:00,16.0,-1.6,29.26,South,190,0.0,0.0,45,0.00,,OVC200,0.00,VWS V14.01,2013-01-22 19:12:00,
2013-01-22 13:17:00,16.2,-1.4,29.23,South,179,0.0,0.0,45,0.00,,OVC200,0.00,VWS V14.01,2013-01-22 19:17:00,
2013-01-22 13:22:00,16.2,-1.4,29.23,SSE,162,0.0,0.0,45,0.00,,OVC200,0.00,VWS V14.01,2013-01-22 19:22:00,
2013-01-22 13:27:00,16.3,-1.3,29.23,SW,214,0.0,0.0,45,0.00,,OVC200,0.00,VWS V14.01,2013-01-22 19:27:00,
2013-01-22 13:32:00,16.5,-1.1,29.26,SSW,212,0.0,0.0,45,0.00,,OVC200,0.00,VWS V14.01,2013-01-22 19:32:00,
2013-01-22 13:37:00,16.7,-0.9,29.26,SW,224,0.0,0.0,45,0.00,,OVC200,0.00,VWS V14.01,2013-01-22 19:37:00,
2013-01-22 13:42:00,16.7,-0.9,29.23,South,182,0.0,4.9,45,0.00,,OVC200,0.00,VWS V14.01,2013-01-22 19:42:00,
2013-01-22 13:47:00,16.9,-0.8,29.23,SSE,166,0.0,0.0,45,0.00,,OVC200,0.00,VWS V14.01,2013-01-22 19:47:00,
2013-01-22 13:53:00,16.9,-0.8,29.23,SSW,203,0.0,0.0,45,0.00,,OVC200,0.00,VWS V14.01,2013-01-22 19:53:00,
2013-01-22 13:58:00,17.1,-0.6,29.23,WSW,237,0.0,0.0,45,0.00,,OVC200,0.00,VWS V14.01,2013-01-22 19:58:00,
2013-01-22 14:03:00,17.1,-0.6,29.23,SW,223,0.0,0.0,45,0.00,,OVC200,0.00,VWS V14.01,2013-01-22 20:03:00,
2013-01-22 14:08:00,17.1,-0.6,29.23,South,183,0.0,0.0,45,0.00,,OVC200,0.00,VWS V14.01,2013-01-22 20:08:00,
2013-01-22 14:13:00,17.1,-1.1,29.23,WSW,242,0.0,0.0,44,0.00,,OVC200,0.00,VWS V14.01,2013-01-22 20:13:00,
2013-01-22 14:18:00,17.1,-1.1,29.23,WSW,247,0.0,0.0,44,0.00,,OVC200,0.00,VWS V14.01,2013-01-22 20:18:00,
2013-01-22 14:23:00,17.1,-1.1,29.23,South,176,0.0,0.0,44,0.00,,OVC200,0.00,VWS V14.01,2013-01-22 20:23:00,
2013-01-22 14:28:00,17.2,-0.9,29.23,SW,224,0.0,0.0,44,0.00,,OVC200,0.00,VWS V14.01,2013-01-22 20:28:00,
2013-01-22 14:33:00,17.4,-0.8,29.23,WSW,253,0.0,0.0,44,0.00,,OVC200,0.00,VWS V14.01,2013-01-22 20:33:00,
2013-01-22 14:38:00,17.6,-0.6,29.23,SW,232,0.0,0.0,44,0.00,,OVC200,0.00,VWS V14.01,2013-01-22 20:38:00,
2013-01-22 14:43:00,17.6,-0.6,29.23,SSW,203,0.0,0.0,44,0.00,,OVC200,0.00,VWS V14.01,2013-01-22 20:43:00,
2013-01-22 14:48:00,17.8,-0.4,29.23,West,261,3.1,3.1,44,0.00,,OVC200,0.00,VWS V14.01,2013-01-22 20:48:00,
2013-01-22 14:53:00,17.6,-0.6,29.23,SSW,205,0.0,0.0,44,0.00,,OVC200,0.00,VWS V14.01,2013-01-22 20:53:00,
2013-01-22 14:58:00,17.8,-0.4,29.23,SW,226,0.0,0.0,44,0.00,,OVC200,0.00,VWS V14.01,2013-01-22 20:58:00,
2013-01-22 15:03:00,17.8,-0.4,29.23,SSW,198,0.0,0.0,44,0.00,,OVC200,0.00,VWS V14.01,2013-01-22 21:03:00,
2013-01-22 15:08:00,17.8,-0.4,29.23,SW,220,0.0,0.0,44,0.00,,OVC200,0.00,VWS V14.01,2013-01-22 21:08:00,
2013-01-22 15:13:00,17.8,-0.4,29.23,SSW,208,0.0,0.0,44,0.00,,OVC200,0.00,VWS V14.01,2013-01-22 21:13:00,
2013-01-22 15:18:00,17.8,-0.4,29.23,SSW,193,0.0,0.0,44,0.00,,OVC200,0.00,VWS V14.01,2013-01-22 21:18:00,
2013-01-22 15:23:00,17.8,-0.4,29.23,SSW,195,0.0,0.0,44,0.00,,OVC200,0.00,VWS V14.01,2013-01-22 21:23:00,
2013-01-22 15:29:00,17.8,-0.4,29.23,West,260,0.0,0.0,44,0.00,,OVC200,0.00,VWS V14.01,2013-01-22 21:29:00,
2013-01-22 15:31:00,17.8,-0.4,29.23,West,260,0.0,0.0,44,0.00,,OVC200,0.00,VWS V14.01,2013-01-22 21:31:00,
2013-01-22 15:37:00,17.6,-0.6,29.23,WSW,244,0.0,0.0,44,0.00,,OVC200,0.00,VWS V14.01,2013-01-22 21:37:00,
2013-01-22 15:42:00,17.8,-0.4,29.23,SW,233,0.0,0.0,44,0.00,,OVC200,0.00,VWS V14.01,2013-01-22 21:42:00,
2013-01-22 15:47:00,17.8,-0.4,29.23,SE,132,0.0,0.0,44,0.00,,OVC200,0.00,VWS V14.01,2013-01-22 21:47:00,
2013-01-22 15:52:00,17.8,-0.4,29.23,SSE,163,0.0,0.0,44,0.00,,OVC200,0.00,VWS V14.01,2013-01-22 21:52:00,
2013-01-22 15:57:00,17.8,-0.4,29.23,SSE,150,0.0,0.0,44,0.00,,OVC200,0.00,VWS V14.01,2013-01-22 21:57:00,
2013-01-22 16:02:00,17.8,-0.4,29.21,SSE,148,0.0,0.0,44,0.00,,OVC055,0.00,VWS V14.01,2013-01-22 22:02:00,
2013-01-22 16:07:00,18.0,-0.3,29.21,SSE,148,0.0,0.0,44,0.00,,OVC055,0.00,VWS V14.01,2013-01-22 22:07:00,
2013-01-22 16:12:00,17.8,-0.4,29.21,SSE,149,0.0,0.0,44,0.00,,OVC055,0.00,VWS V14.01,2013-01-22 22:12:00,
2013-01-22 16:17:00,17.8,-0.4,29.21,SSE,148,0.0,0.0,44,0.00,,OVC055,0.00,VWS V14.01,2013-01-22 22:17:00,
2013-01-22 16:22:00,17.6,-0.6,29.21,SSE,148,0.0,0.0,44,0.00,,OVC055,0.00,VWS V14.01,2013-01-22 22:22:00,
2013-01-22 16:27:00,17.4,-0.8,29.21,SSE,148,0.0,0.0,44,0.00,,OVC055,0.00,VWS V14.01,2013-01-22 22:27:00,
2013-01-22 16:32:00,17.6,-0.6,29.21,SSE,148,0.0,0.0,44,0.00,,OVC055,0.00,VWS V14.01,2013-01-22 22:32:00,
2013-01-22 16:37:00,17.6,-0.6,29.21,SSE,148,0.0,0.0,44,0.00,,OVC055,0.00,VWS V14.01,2013-01-22 22:37:00,
2013-01-22 16:42:00,17.6,-0.6,29.21,SSE,148,0.0,0.0,44,0.00,,OVC055,0.00,VWS V14.01,2013-01-22 22:42:00,
2013-01-22 16:48:00,17.4,-0.8,29.21,SSE,148,0.0,0.0,44,0.00,,OVC055,0.00,VWS V14.01,2013-01-22 22:48:00,
2013-01-22 16:53:00,17.4,-0.8,29.21,SSE,148,0.0,0.0,44,0.00,,OVC055,0.00,VWS V14.01,2013-01-22 22:53:00,
2013-01-22 16:58:00,17.2,-0.9,29.21,SSE,148,0.0,0.0,44,0.00,,OVC055,0.00,VWS V14.01,2013-01-22 22:58:00,
2013-01-22 17:03:00,17.2,-0.9,29.21,SSE,148,0.0,0.0,44,0.00,,OVC055,0.00,VWS V14.01,2013-01-22 23:03:00,
2013-01-22 17:08:00,17.1,-1.1,29.21,SSE,147,0.0,0.0,44,0.00,,OVC055,0.00,VWS V14.01,2013-01-22 23:08:00,
2013-01-22 17:13:00,17.1,-1.1,29.21,SSE,148,0.0,0.0,44,0.00,,OVC055,0.00,VWS V14.01,2013-01-22 23:13:00,
2013-01-22 17:18:00,17.1,-1.1,29.21,SSE,148,0.0,0.0,44,0.00,,OVC055,0.00,VWS V14.01,2013-01-22 23:18:00,
2013-01-22 17:23:00,17.1,-1.1,29.21,SSE,148,0.0,0.0,44,0.00,,OVC055,0.00,VWS V14.01,2013-01-22 23:23:00,
2013-01-22 17:28:00,16.9,-1.2,29.21,SSE,148,0.0,0.0,44,0.00,,OVC055,0.00,VWS V14.01,2013-01-22 23:28:00,
2013-01-22 17:34:00,16.9,-1.2,29.21,SSE,148,0.0,0.0,44,0.00,,OVC055,0.00,VWS V14.01,2013-01-22 23:34:00,
2013-01-22 17:39:00,16.9,-1.2,29.21,SSE,148,0.0,0.0,44,0.00,,OVC055,0.00,VWS V14.01,2013-01-22 23:39:00,
2013-01-22 17:44:00,16.9,-1.2,29.21,SSE,148,0.0,0.0,44,0.00,,OVC055,0.00,VWS V14.01,2013-01-22 23:44:00,
2013-01-22 17:49:00,16.9,-1.2,29.21,SSE,148,0.0,0.0,44,0.00,,OVC055,0.00,VWS V14.01,2013-01-22 23:49:00,
2013-01-22 17:54:00,16.9,-0.8,29.21,SSE,147,0.0,0.0,45,0.00,,OVC055,0.00,VWS V14.01,2013-01-22 23:54:00,
2013-01-22 17:59:00,16.9,-0.8,29.21,SSE,148,0.0,0.0,45,0.00,,OVC055,0.00,VWS V14.01,2013-01-22 23:59:00,
2013-01-22 18:04:00,16.9,-0.8,29.21,SSE,148,0.0,0.0,45,0.00,,OVC050,0.00,VWS V14.01,2013-01-23 00:04:00,
2013-01-22 18:09:00,16.9,-0.8,29.21,SSE,148,0.0,0.0,45,0.00,,OVC050,0.00,VWS V14.01,2013-01-23 00:09:00,
2013-01-22 18:14:00,16.9,-0.8,29.21,SSE,148,0.0,0.0,45,0.00,,OVC050,0.00,VWS V14.01,2013-01-23 00:14:00,
2013-01-22 18:19:00,16.9,-0.8,29.21,SSE,147,0.0,0.0,45,0.00,,OVC050,0.00,VWS V14.01,2013-01-23 00:19:00,
2013-01-22 18:24:00,16.9,-0.8,29.21,SSE,148,0.0,0.0,45,0.00,,OVC050,0.00,VWS V14.01,2013-01-23 00:24:00,
2013-01-22 18:29:00,16.9,-0.8,29.21,SSE,147,0.0,0.0,45,0.00,,OVC050,0.00,VWS V14.01,2013-01-23 00:29:00,
2013-01-22 18:34:00,16.9,-0.8,29.21,SSE,148,0.0,0.0,45,0.00,,OVC050,0.00,VWS V14.01,2013-01-23 00:34:00,
2013-01-22 18:39:00,16.9,-0.8,29.21,SSE,148,0.0,0.0,45,0.00,,OVC050,0.00,VWS V14.01,2013-01-23 00:39:00,
2013-01-22 18:45:00,16.9,-0.8,29.21,SSE,148,0.0,0.0,45,0.00,,OVC050,0.00,VWS V14.01,2013-01-23 00:45:00,
2013-01-22 18:50:00,16.9,-0.8,29.21,SSE,148,0.0,0.0,45,0.00,,OVC050,0.00,VWS V14.01,2013-01-23 00:50:00,
2013-01-22 18:55:00,16.9,-0.8,29.21,SSE,148,0.0,0.0,45,0.00,,OVC050,0.00,VWS V14.01,2013-01-23 00:55:00,
2013-01-22 19:00:00,16.9,-0.8,29.21,SSE,148,0.0,0.0,45,0.00,,OVC050,0.00,VWS V14.01,2013-01-23 01:00:00,
2013-01-22 19:05:00,16.9,-0.8,29.21,SSE,148,0.0,0.0,45,0.00,,OVC050,0.00,VWS V14.01,2013-01-23 01:05:00,
2013-01-22 19:10:00,16.9,-0.8,29.21,SSE,148,0.0,0.0,45,0.00,,OVC050,0.00,VWS V14.01,2013-01-23 01:10:00,
2013-01-22 19:15:00,16.9,-0.8,29.21,SSE,148,0.0,0.0,45,0.00,,OVC050,0.00,VWS V14.01,2013-01-23 01:15:00,
2013-01-22 19:20:00,16.9,-0.8,29.21,SSE,148,0.0,0.0,45,0.00,,OVC050,0.00,VWS V14.01,2013-01-23 01:20:00,
2013-01-22 19:25:00,16.9,-0.8,29.21,SSE,148,0.0,0.0,45,0.00,,OVC050,0.00,VWS V14.01,2013-01-23 01:25:00,
2013-01-22 19:30:00,16.9,-0.8,29.21,SSE,148,0.0,0.0,45,0.00,,OVC050,0.00,VWS V14.01,2013-01-23 01:30:00,
2013-01-22 19:35:00,16.9,-0.8,29.21,SSE,148,0.0,0.0,45,0.00,,OVC050,0.00,VWS V14.01,2013-01-23 01:35:00,
2013-01-22 19:40:00,16.9,-0.8,29.21,SSE,148,0.0,0.0,45,0.00,,OVC050,0.00,VWS V14.01,2013-01-23 01:40:00,
2013-01-22 19:45:00,16.9,-0.8,29.21,SSE,147,0.0,0.0,45,0.00,,OVC050,0.00,VWS V14.01,2013-01-23 01:45:00,
2013-01-22 19:50:00,16.9,-0.8,29.21,SSE,147,0.0,0.0,45,0.00,,OVC050,0.00,VWS V14.01,2013-01-23 01:50:00,
2013-01-22 19:55:00,16.9,-0.8,29.21,SSE,148,0.0,0.0,45,0.00,,OVC050,0.00,VWS V14.01,2013-01-23 01:55:00,
2013-01-22 20:01:00,16.9,-0.8,29.21,SSE,148,0.0,0.0,45,0.00,,OVC042,0.00,VWS V14.01,2013-01-23 02:01:00,
2013-01-22 20:06:00,16.9,-0.8,29.21,SSE,148,0.0,0.0,45,0.00,,OVC042,0.00,VWS V14.01,2013-01-23 02:06:00,
2013-01-22 20:11:00,16.9,-0.8,29.21,SSE,147,0.0,0.0,45,0.00,,OVC042,0.00,VWS V14.01,2013-01-23 02:11:00,
2013-01-22 20:16:00,16.9,-0.8,29.23,SSE,148,0.0,0.0,45,0.00,,OVC042,0.00,VWS V14.01,2013-01-23 02:16:00,
2013-01-22 20:21:00,16.9,-0.8,29.23,SSE,148,0.0,0.0,45,0.00,,OVC042,0.00,VWS V14.01,2013-01-23 02:21:00,
2013-01-22 20:26:00,17.1,-0.6,29.23,SSE,147,0.0,0.0,45,0.00,,OVC042,0.00,VWS V14.01,2013-01-23 02:26:00,
2013-01-22 20:31:00,16.9,-0.8,29.23,SSE,148,0.0,0.0,45,0.00,,OVC042,0.00,VWS V14.01,2013-01-23 02:31:00,
2013-01-22 20:36:00,17.1,-0.6,29.23,SSE,148,0.0,0.0,45,0.00,,OVC042,0.00,VWS V14.01,2013-01-23 02:36:00,
2013-01-22 20:41:00,17.1,-0.6,29.23,SSE,148,0.0,0.0,45,0.00,,OVC042,0.00,VWS V14.01,2013-01-23 02:41:00,
2013-01-22 20:46:00,17.1,-0.6,29.23,SSE,147,0.0,0.0,45,0.00,,OVC042,0.00,VWS V14.01,2013-01-23 02:46:00,
2013-01-22 20:51:00,17.1,-0.6,29.23,SSE,148,0.0,0.0,45,0.00,,OVC042,0.00,VWS V14.01,2013-01-23 02:51:00,
2013-01-22 20:56:00,17.1,-0.6,29.23,SSE,147,0.0,0.0,45,0.00,,OVC042,0.00,VWS V14.01,2013-01-23 02:56:00,
2013-01-22 21:01:00,16.9,-0.8,29.21,SSE,148,0.0,0.0,45,0.00,,OVC042,0.00,VWS V14.01,2013-01-23 03:01:00,
2013-01-22 21:06:00,17.1,-0.6,29.21,SSE,148,0.0,0.0,45,0.00,,OVC042,0.00,VWS V14.01,2013-01-23 03:06:00,
2013-01-22 21:11:00,16.9,-0.8,29.21,SSE,147,0.0,0.0,45,0.00,,OVC042,0.00,VWS V14.01,2013-01-23 03:11:00,
2013-01-22 21:17:00,16.9,-0.8,29.21,SE,142,0.0,0.0,45,0.00,,OVC042,0.00,VWS V14.01,2013-01-23 03:17:00,
2013-01-22 21:22:00,16.9,-0.8,29.21,SE,136,0.0,0.0,45,0.00,,OVC042,0.00,VWS V14.01,2013-01-23 03:22:00,
2013-01-22 21:27:00,16.9,-0.8,29.21,SE,134,0.0,0.0,45,0.00,,OVC042,0.00,VWS V14.01,2013-01-23 03:27:00,
2013-01-22 21:32:00,16.9,-0.8,29.21,SE,134,0.0,0.0,45,0.00,,OVC042,0.00,VWS V14.01,2013-01-23 03:32:00,
2013-01-22 21:37:00,16.9,-0.8,29.21,SE,134,0.0,0.0,45,0.00,,OVC042,0.00,VWS V14.01,2013-01-23 03:37:00,
2013-01-22 21:42:00,16.9,-0.8,29.21,SE,132,0.0,0.0,45,0.00,,OVC042,0.00,VWS V14.01,2013-01-23 03:42:00,
2013-01-22 21:47:00,16.9,-0.8,29.21,SE,130,0.0,0.0,45,0.00,,OVC042,0.00,VWS V14.01,2013-01-23 03:47:00,
2013-01-22 21:52:00,16.9,-0.8,29.21,SE,142,0.0,0.0,45,0.00,,OVC042,0.00,VWS V14.01,2013-01-23 03:52:00,
2013-01-22 21:57:00,16.9,-0.8,29.21,SE,141,0.0,0.0,45,0.00,,OVC042,0.00,VWS V14.01,2013-01-23 03:57:00,
2013-01-22 22:02:00,16.9,-0.3,29.21,SE,137,0.0,0.0,46,0.00,,OVC040,0.00,VWS V14.01,2013-01-23 04:02:00,
2013-01-22 22:07:00,16.9,-0.3,29.21,SE,139,0.0,0.0,46,0.00,,OVC040,0.00,VWS V14.01,2013-01-23 04:07:00,
2013-01-22 22:12:00,16.9,-0.3,29.21,SE,133,0.0,0.0,46,0.00,,OVC040,0.00,VWS V14.01,2013-01-23 04:12:00,
2013-01-22 22:17:00,16.9,-0.3,29.21,SE,144,0.0,0.0,46,0.00,,OVC040,0.00,VWS V14.01,2013-01-23 04:17:00,
2013-01-22 22:22:00,16.9,-0.3,29.21,SE,131,0.0,0.0,46,0.00,,OVC040,0.00,VWS V14.01,2013-01-23 04:22:00,
2013-01-22 22:27:00,16.9,-0.3,29.21,SE,125,0.0,0.0,46,0.00,,OVC040,0.00,VWS V14.01,2013-01-23 04:27:00,
2013-01-22 22:33:00,16.9,-0.3,29.21,SE,125,0.0,0.0,46,0.00,,OVC040,0.00,VWS V14.01,2013-01-23 04:33:00,
2013-01-22 22:38:00,16.9,-0.3,29.21,SE,127,0.0,0.0,46,0.00,,OVC040,0.00,VWS V14.01,2013-01-23 04:38:00,
2013-01-22 22:43:00,16.9,-0.3,29.21,SE,128,0.0,0.0,46,0.00,,OVC040,0.00,VWS V14.01,2013-01-23 04:43:00,
2013-01-22 22:48:00,16.9,-0.3,29.21,SE,127,0.0,0.0,46,0.00,,OVC040,0.00,VWS V14.01,2013-01-23 04:48:00,
2013-01-22 22:53:00,16.7,-0.5,29.21,SE,127,0.0,0.0,46,0.00,,OVC040,0.00,VWS V14.01,2013-01-23 04:53:00,
2013-01-22 22:58:00,16.5,-0.6,29.21,SE,127,0.0,0.0,46,0.00,,OVC040,0.00,VWS V14.01,2013-01-23 04:58:00,
2013-01-22 23:00:00,16.5,-0.6,29.21,SE,127,0.0,0.0,46,0.00,,OVC040,0.00,VWS V14.01,2013-01-23 05:00:00,
2013-01-22 23:03:00,16.3,-0.8,29.21,SE,127,0.0,0.0,46,0.00,,OVC040,0.00,VWS V14.01,2013-01-23 05:03:00,
2013-01-22 23:04:00,16.3,-0.8,29.21,SE,127,0.0,0.0,46,0.00,,OVC040,0.00,VWS V14.01,2013-01-23 05:04:00,
2013-01-22 23:09:00,16.2,-1.0,29.21,SE,127,0.0,0.0,46,0.00,,OVC040,0.00,VWS V14.01,2013-01-23 05:09:00,
2013-01-22 23:14:00,16.2,-1.0,29.21,SE,127,0.0,0.0,46,0.00,,OVC040,0.00,VWS V14.01,2013-01-23 05:14:00,
2013-01-22 23:19:00,16.0,-1.1,29.21,SE,127,0.0,0.0,46,0.00,,OVC040,0.00,VWS V14.01,2013-01-23 05:19:00,
2013-01-22 23:24:00,16.0,-1.1,29.21,SE,127,0.0,0.0,46,0.00,,OVC040,0.00,VWS V14.01,2013-01-23 05:24:00,
2013-01-22 23:29:00,16.0,-1.1,29.18,SE,127,0.0,0.0,46,0.00,,OVC040,0.00,VWS V14.01,2013-01-23 05:29:00,
2013-01-22 23:34:00,16.0,-0.7,29.18,SE,127,0.0,0.0,47,0.00,,OVC040,0.00,VWS V14.01,2013-01-23 05:34:00,
2013-01-22 23:39:00,16.0,-0.7,29.18,SE,127,0.0,0.0,47,0.00,,OVC040,0.00,VWS V14.01,2013-01-23 05:39:00,
2013-01-22 23:44:00,16.2,-0.5,29.21,SE,127,0.0,0.0,47,0.00,,OVC040,0.00,VWS V14.01,2013-01-23 05:44:00,
2013-01-22 23:49:00,16.2,-0.5,29.21,SE,127,0.0,0.0,47,0.00,,OVC040,0.00,VWS V14.01,2013-01-23 05:49:00,
2013-01-22 23:54:00,16.3,-0.3,29.21,SE,127,0.0,0.0,47,0.00,,OVC040,0.00,VWS V14.01,2013-01-23 05:54:00,
2013-01-22 23:59:00,16.3,-0.3,29.18,SE,127,0.0,0.0,47,0.00,,OVC040,0.00,VWS V14.01,2013-01-23 05:59:00,